Change the Weather History Date:

Thursday, August 1, 2013

  Actual Average (KLSE) Record (KLSE)
Temperature  
Mean Temperature 63 °F 73 °F  
Max Temperature 80 °F 83 °F 105 °F (1988)
Min Temperature 46 °F 63 °F 49 °F (1976)
Degree Days  
Heating Degree Days 2 0  
Month to date heating degree days 0  
Since 1 July heating degree days 5  
Cooling Degree Days 0 8  
Month to date cooling degree days 8  
Year to date cooling degree days 495  
Growing Degree Days 13 (Base 50)    
Moisture  
Dew Point 52 °F    
Average Humidity 70    
Maximum Humidity 100    
Minimum Humidity 33    
Precipitation  
Precipitation 0.02 in 0.14 in 1.75 in (1940)
Month to date precipitation 0.14  
Year to date precipitation 19.81  
Snow  
Snow 0.00 in 0.00 in 0.00 in (2002)
Month to date snowfall 0.0  
Since 1 July snowfall 0.0  
Snow Depth -    
Sea Level Pressure  
Sea Level Pressure 29.97 in    
Wind  
Wind Speed 2 mph (WNW)    
Max Wind Speed 15 mph    
Max Gust Speed 21 mph    
Visibility 9 miles    
Events Thunderstorm    
T = Trace of Precipitation, MM = Missing Value Source: NWS Daily Summary

Daily Weather History Graph

Daily Weather History Graph

Search for Another Location

Airport or City:

Trip Planner

Search our weather history database for the weather conditions in past years. The results will help you decide how hot, cold, wet, or windy it might be!

Date:

Astronomy

Aug. 01, 2013 Rise Set
Actual Time 5:51 AM CDT 8:27 PM CDT
Civil Twilight 5:18 AM CDT 9:00 PM CDT
Nautical Twilight 4:36 AM CDT 9:41 PM CDT
Astronomical Twilight 3:48 AM CDT 10:29 PM CDT
Moon 1:26 AM CDT (8/1) 4:38 PM CDT (8/1)
Length of Visible Light 15h 42m
Length of Day
14h 36m
Waning Crescent, 23% of the Moon is Illuminated
Aug 1
Waning Crescent
Aug 6
New
Aug 14
First Quarter
Aug 20
Full
Aug 28
Last Quarter

Hourly Weather History & Observations

Time (CDT) Temp. Dew Point Humidity Pressure Visibility Wind Dir Wind Speed Gust Speed Precip Events Conditions
12:15 AM 52.7 °F 52.7 °F 100% 30.00 in 7.0 mi Calm Calm - N/A   Clear
12:35 AM 51.6 °F 51.6 °F 100% 30.00 in 7.0 mi Calm Calm - N/A   Clear
12:55 AM 51.1 °F 51.1 °F 100% 30.00 in 7.0 mi Calm Calm - N/A   Scattered Clouds
1:15 AM 51.1 °F 51.1 °F 100% 30.00 in 7.0 mi Calm Calm - N/A   Clear
1:35 AM 50.9 °F 50.9 °F 100% 29.99 in 5.0 mi Calm Calm - N/A   Scattered Clouds
1:55 AM 51.1 °F 51.1 °F 100% 29.99 in 10.0 mi Calm Calm - N/A   Mostly Cloudy
2:15 AM 51.3 °F 51.3 °F 100% 29.99 in 7.0 mi Calm Calm - N/A   Mostly Cloudy
2:35 AM 52.0 °F 52.0 °F 100% 29.99 in 10.0 mi Calm Calm - N/A   Overcast
2:55 AM 52.0 °F 52.0 °F 100% 29.99 in 7.0 mi Calm Calm - N/A   Mostly Cloudy
3:15 AM 50.9 °F 50.9 °F 100% 29.99 in 7.0 mi Calm Calm - N/A   Scattered Clouds
3:35 AM 50.2 °F 50.2 °F 100% 29.99 in 7.0 mi Calm Calm - N/A   Scattered Clouds
3:55 AM 49.5 °F 49.5 °F 100% 29.99 in 5.0 mi Calm Calm - N/A   Mostly Cloudy
4:15 AM 48.6 °F 48.6 °F 100% 29.99 in 4.0 mi Calm Calm - N/A   Scattered Clouds
4:35 AM 47.8 °F 47.8 °F 100% 29.99 in 4.0 mi Calm Calm - N/A   Clear
4:55 AM 47.5 °F 47.5 °F 100% 29.99 in 7.0 mi Calm Calm - N/A   Clear
5:15 AM 47.1 °F 47.1 °F 100% 29.99 in 7.0 mi Calm Calm - N/A   Scattered Clouds
5:35 AM 46.9 °F 46.9 °F 100% 30.00 in 7.0 mi Calm Calm - N/A   Scattered Clouds
5:55 AM 46.0 °F 46.0 °F 100% 30.01 in 7.0 mi Calm Calm - N/A   Scattered Clouds
6:15 AM 46.4 °F 46.4 °F 100% 30.01 in 7.0 mi Calm Calm - N/A   Scattered Clouds
6:35 AM 47.3 °F 47.3 °F 100% 30.02 in 10.0 mi Calm Calm - N/A   Scattered Clouds
6:55 AM 50.2 °F 50.2 °F 100% 30.02 in 10.0 mi Calm Calm - N/A   Clear
7:15 AM 54.9 °F 54.9 °F 100% 30.02 in 10.0 mi Calm Calm - N/A   Clear
7:35 AM 58.8 °F 58.6 °F 99% 30.02 in 10.0 mi Calm Calm - N/A   Clear
7:55 AM 60.8 °F 58.5 °F 92% 30.02 in 10.0 mi Calm Calm - N/A   Clear
8:15 AM 62.4 °F 58.8 °F 88% 30.02 in 10.0 mi Calm Calm - N/A   Clear
8:35 AM 63.9 °F 56.1 °F 76% 30.02 in 10.0 mi West 3.5 mph - N/A   Clear
8:55 AM 65.5 °F 55.6 °F 70% 30.02 in 10.0 mi WNW 3.5 mph - N/A   Clear
9:15 AM 66.7 °F 54.9 °F 66% 30.02 in 10.0 mi NW 5.8 mph - N/A   Clear
9:35 AM 68.2 °F 54.9 °F 62% 30.02 in 10.0 mi WNW 8.1 mph - N/A   Clear
9:55 AM 69.8 °F 54.7 °F 59% 30.01 in 10.0 mi NW 5.8 mph - N/A   Clear
10:15 AM 70.0 °F 53.4 °F 56% 30.02 in 10.0 mi WNW 5.8 mph - N/A   Clear
10:35 AM 71.6 °F 53.4 °F 53% 30.02 in 10.0 mi WNW 8.1 mph - N/A   Clear
10:55 AM 72.7 °F 52.2 °F 48% 30.02 in 10.0 mi West 9.2 mph - N/A   Clear
11:15 AM 72.7 °F 51.6 °F 47% 30.02 in 10.0 mi WNW 6.9 mph 16.1 mph N/A   Clear
11:35 AM 74.3 °F 50.9 °F 44% 30.02 in 10.0 mi WNW 9.2 mph - N/A   Scattered Clouds
11:55 AM 74.3 °F 50.7 °F 43% 30.02 in 10.0 mi WNW 8.1 mph - N/A   Scattered Clouds
12:15 PM 75.6 °F 50.7 °F 42% 30.01 in 10.0 mi WNW 8.1 mph - N/A   Scattered Clouds
12:35 PM 76.1 °F 47.5 °F 36% 30.01 in 10.0 mi NW 9.2 mph 20.7 mph N/A   Scattered Clouds
12:55 PM 77.4 °F 49.6 °F 38% 30.01 in 10.0 mi West 13.8 mph 17.3 mph N/A   Clear
1:15 PM 77.2 °F 48.7 °F 37% 30.00 in 10.0 mi West 15.0 mph 20.7 mph N/A   Scattered Clouds
1:35 PM 77.4 °F 48.9 °F 37% 29.99 in 10.0 mi NNW 9.2 mph - N/A   Scattered Clouds
1:55 PM 78.8 °F 48.7 °F 35% 29.99 in 10.0 mi NW 8.1 mph 17.3 mph N/A   Scattered Clouds
2:15 PM 78.8 °F 47.5 °F 33% 29.98 in 10.0 mi WNW 8.1 mph 17.3 mph N/A   Scattered Clouds
2:35 PM 80.1 °F 48.4 °F 33% 29.98 in 10.0 mi NW 10.4 mph 17.3 mph N/A   Mostly Cloudy
2:55 PM 78.4 °F 47.3 °F 33% 29.98 in 10.0 mi West 8.1 mph 18.4 mph N/A   Scattered Clouds
3:15 PM 77.2 °F 49.6 °F 38% 29.97 in 10.0 mi WNW 5.8 mph - N/A   Mostly Cloudy
3:35 PM 77.9 °F 49.1 °F 36% 29.96 in 10.0 mi West 6.9 mph - N/A   Mostly Cloudy
3:55 PM 79.0 °F 48.9 °F 35% 29.96 in 10.0 mi West 6.9 mph - N/A   Scattered Clouds
4:15 PM 77.5 °F 49.3 °F 37% 29.96 in 10.0 mi West 4.6 mph - N/A   Scattered Clouds
4:35 PM 79.2 °F 49.1 °F 35% 29.94 in 10.0 mi NW 4.6 mph - N/A   Scattered Clouds
4:55 PM 76.5 °F 51.4 °F 42% 29.94 in 10.0 mi WNW 3.5 mph - N/A   Mostly Cloudy
5:15 PM 79.5 °F 50.4 °F 36% 29.93 in 10.0 mi West 9.2 mph - N/A   Mostly Cloudy
5:35 PM 79.0 °F 49.8 °F 36% 29.93 in 10.0 mi West 8.1 mph - N/A   Scattered Clouds
5:55 PM 75.9 °F 52.3 °F 44% 29.93 in 10.0 mi West 4.6 mph - N/A   Scattered Clouds
6:15 PM 75.6 °F 53.4 °F 46% 29.93 in 10.0 mi WSW 3.5 mph - N/A   Mostly Cloudy
6:35 PM 76.1 °F 52.2 °F 43% 29.93 in 10.0 mi Calm Calm - N/A   Mostly Cloudy
6:55 PM 77.0 °F 52.5 °F 42% 29.92 in 10.0 mi West 3.5 mph - N/A   Scattered Clouds
7:15 PM 76.5 °F 52.5 °F 43% 29.92 in 10.0 mi Calm Calm - N/A   Clear
7:35 PM 75.4 °F 53.6 °F 47% 29.92 in 10.0 mi SSW 3.5 mph - N/A   Clear
7:55 PM 73.4 °F 55.0 °F 52% 29.91 in 10.0 mi Calm Calm - N/A   Clear
8:15 PM 70.0 °F 57.0 °F 63% 29.91 in 5.0 mi Calm Calm - N/A   Haze
8:35 PM 66.2 °F 58.8 °F 77% 29.91 in 10.0 mi Calm Calm - N/A   Scattered Clouds
8:55 PM 65.8 °F 58.8 °F 78% 29.91 in 10.0 mi Calm Calm - N/A   Mostly Cloudy
9:15 PM 65.7 °F 59.9 °F 82% 29.91 in 10.0 mi Calm Calm - N/A   Overcast
9:35 PM 65.7 °F 58.6 °F 78% 29.91 in 10.0 mi Calm Calm - N/A   Overcast
9:55 PM 64.4 °F 57.9 °F 79% 29.90 in 10.0 mi Calm Calm - N/A   Mostly Cloudy
10:15 PM 63.0 °F 57.6 °F 82% 29.90 in 10.0 mi Calm Calm - N/A   Scattered Clouds
10:35 PM 62.4 °F 57.6 °F 84% 29.90 in 10.0 mi Calm Calm - N/A   Mostly Cloudy
10:55 PM 60.6 °F 58.5 °F 93% 29.88 in 10.0 mi Calm Calm - N/A   Scattered Clouds
11:15 PM 59.7 °F 59.0 °F 97% 29.88 in 10.0 mi South 3.5 mph - N/A   Scattered Clouds
11:35 PM 60.6 °F 60.1 °F 98% 29.88 in 10.0 mi Calm Calm - N/A Thunderstorm Mostly Cloudy
11:55 PM 60.1 °F 60.1 °F 100% 29.87 in 10.0 mi Calm Calm - N/A   Mostly Cloudy